Location: *
(37.4917°N, 71.5558°E)
Time: 03:39:21
(UTC+00:00)

Okean 3 - Pass Details

Date: 09 April 2020
Orbit: 577 x 600 km, 82.5° (Epoch: 30 May)

Event Time Altitude Azimuth Distance (km) Brightness Sun altitude
Exits shadow 22:56:56 38° 308° (NW) 897 4.1 -21.1°
Drops below altitude 10° 23:00:11 10° 352° (N) 1,896 6.3 -20.6°
Sets 23:02:30 0° 360° (N) 2,801 7.3 -20.2°
